This demonstration page uses our WeatherBlox Daily Observations layout. Learn more.

Left ArrowRight Arrow

38.20091, -84.87328

Hourly Observations for July 7, 2015

Temp ( °F °C ) Dew Point ( °F °C ) Humidity (%) Winds ( mph kmh ) Pressure ( in mb ) Visibility ( mi km ) Precip ( " mm )
12:53 am 00:53 Clear 74 23.3 69 20.6 85 85 SSW 7 11 30.00 1016 10 16 0.00 0.00
1:53 am 01:53 Mostly Clear 73 22.8 68 20 84 84 SSW 7 11 30.00 1016 10 16 0.00 0.00
2:53 am 02:53 Clear 74 23.3 68 20 82 82 SSW 7 11 29.98 1015 10 16 0.00 0.00
3:53 am 03:53 Mostly Cloudy 73 22.8 68 20 84 84 SSW 5 7 29.99 1016 10 16 0.00 0.00
4:53 am 04:53 Partly Cloudy 74 23.3 69 20.6 85 85 SSW 9 15 29.99 1016 10 16 0.00 0.00
5:53 am 05:53 Clear 73 22.8 69 20.6 87 87 SSW 8 13 29.99 1016 10 16 0.00 0.00
6:53 am 06:53 Sunny 73 22.8 69 20.6 87 87 SSW 8 13 29.99 1016 8 13 0.00 0.00
7:48 am 07:48 Mostly Cloudy 73 23 70 21 89 89 SSW 12 19 30.00 1016 8 13 0.00 0.00
7:53 am 07:53 Mostly Cloudy 74 23.3 70 21.1 88 88 SSW 8 13 29.99 1016 8 13 0.00 0.00
8:09 am 08:09 Mostly Cloudy 75 23.9 70 21.1 84 84 SSW 12 19 30.00 1016 8 13 0.00 0.00
8:19 am 08:19 Mostly Cloudy 75 23.9 70 21.1 84 84 SSW 8 13 30.00 1016 8 13 0.00 0.00
8:37 am 08:37 Mostly Cloudy 76 24.4 70 21.1 82 82 SW 10 17 30.00 1016 9 14 0.00 0.00
8:53 am 08:53 Cloudy 76 24.4 71 21.7 85 85 SSW 14 22 29.99 1016 9 14 0.00 0.00
9:39 am 09:39 Cloudy 77 25 71 21.7 82 82 SSW 12 19 30.00 1016 9 14 0.00 0.00
9:53 am 09:53 Cloudy 78 25.6 71 21.7 79 79 SSW 14 22 30.00 1016 9 14 0.00 0.00
10:53 am 10:53 Cloudy 78 25.6 70 21.1 76 76 SW 13 20 30.00 1016 10 16 0.00 0.00
11:08 am 11:08 Mostly Cloudy 79 26.1 70 21.1 74 74 SW 13 20 29.97 1015 9 14 0.00 0.00
11:53 am 11:53 Cloudy 78 25.6 69 20.6 74 74 SSW 20 31 29.98 1015 10 16 0.00 0.00
12:00 pm 12:00 Cloudy 78 25.6 69 20.6 74 74 SSW 20 31 29.97 1015 10 16 0.00 0.00
12:08 pm 12:08 Cloudy 77 25 69 20.6 77 77 SW 16 26 29.97 1015 10 16 0.00 0.00
12:40 pm 12:40 Mostly Cloudy 77 25 69 20.6 77 77 WSW 15 24 29.97 1015 10 16 0.00 0.00
12:53 pm 12:53 Cloudy with Light Rain 76 24.4 69 20.6 79 79 WSW 14 22 30.00 1016 8 13 0.00 0.03
1:37 pm 13:37 Cloudy with Light Rain 74 23.3 70 21.1 88 88 SSW 12 19 29.97 1015 9 14 0.03 0.76
1:53 pm 13:53 Cloudy with Light Rain 74 23.3 70 21.1 88 88 SSW 10 17 29.98 1015 6 10 0.04 1.02
2:53 pm 14:53 Mostly Cloudy with Light Rain 75 23.9 71 21.7 88 88 SW 8 13 29.98 1015 8 13 0.02 0.51
3:53 pm 15:53 Partly Cloudy with Nearby Thunderstorms 77 25 73 22.8 88 88 SSW 7 11 29.96 1015 9 14 0.00 0.03
4:08 pm 16:08 Partly Cloudy with Nearby Thunderstorms 73 22.8 68 20 84 84 SW 26 43 29.97 1015 2 3 0.06 1.52
4:15 pm 16:15 Mostly Cloudy with Light Rain 71 21.7 65 18.3 81 81 SW 20 31 30.00 1016 3 4 0.08 2.03
4:18 pm 16:18 Mostly Cloudy with Nearby Thunderstorms 71 21.7 65 18.3 81 81 SW 17 28 30.00 1016 5 8 0.08 2.03
4:44 pm 16:44 Cloudy with Light Rain 71 21.7 67 19.4 87 87 SW 9 15 30.00 1016 5 8 0.12 3.05
4:53 pm 16:53 Mostly Cloudy with Light Rain 71 21.7 68 20 90 90 SW 9 15 29.99 1016 5 8 0.13 3.30
5:53 pm 17:53 Mostly Cloudy 72 22.2 69 20.6 91 91 SSW 7 11 29.98 1015 10 16 0.01 0.25
6:53 pm 18:53 Mostly Cloudy 73 22.8 70 21.1 90 90 SSW 5 7 29.97 1015 10 16 0.01 0.25
7:53 pm 19:53 Sunny 73 22.8 69 20.6 87 87 WSW 7 11 29.97 1015 10 16 0.00 0.00
8:53 pm 20:53 Mostly Sunny 72 22.2 69 20.6 91 91 Calm 29.98 1015 10 16 0.00 0.00
9:53 pm 21:53 Mostly Cloudy 72 22.2 68 20 87 87 S 8 13 29.98 1015 10 16 0.00 0.00
10:53 pm 22:53 Cloudy with Light Rain 72 22.2 68 20 87 87 S 3 6 29.99 1016 5 8 0.00 0.03
11:30 pm 23:30 Cloudy 71 21.7 69 20.6 94 94 SSW 6 9 30.00 1016 10 16 0.01 0.25
11:53 pm 23:53 Cloudy with Light Rain 71 21.7 69 20.6 94 94 SSW 6 9 30.00 1016 7 11 0.01 0.25

Powered by AerisWeather